Location: Kawakawa
(35.3830°S, 174.0670°E)
Time: 18:43:25
(UTC+12:00)

Cosmos 676 Rocket - Pass Details

Date: 15 August 2020
Orbit: 755 x 784 km, 74.0° (Epoch: 25 September)

Event Time Altitude Azimuth Distance (km) Brightness Sun altitude
Rises 18:31:55 0° 195° (SSW) 3,255 7.3 -8.7°
Reaches altitude 10° 18:34:19 10° 193° (SSW) 2,326 6.5 -9.2°
Maximum altitude 18:39:36 71° 108° (ESE) 820 4.0 -10.3°
Drops below altitude 10° 18:44:51 10° 24° (NNE) 2,316 6.3 -11.3°
Sets 18:47:14 0° 21° (NNE) 3,240 7.1 -11.8°
